Location: Joplin
(37.0842°N, 94.5131°W)
Time: 14:30:20
(UTC-05:00)

Envisat - Visible Passes

Search period start: 25 June 2018 00:00
Search period end: 05 July 2018 00:00
Orbit: 764 x 766 km, 98.2° (Epoch: 25 June)

Date Brightness Start Highest point End Pass type
(mag) Time Alt. Az. Time Alt. Az. Time Alt. Az.
26 Jun 5.4 21:38:15 10° SW 21:42:04 21° W 21:45:54 10° NW visible
28 Jun 5.8 22:06:20 10° WSW 22:07:53 11° W 22:09:26 10° WNW visible
29 Jun 5.0 21:26:34 10° SSW 21:30:50 27° W 21:35:08 10° NW visible
01 Jul 5.6 21:53:47 10° SW 21:56:37 15° W 21:59:27 10° WNW visible
02 Jul 4.6 21:15:01 10° SSW 21:19:37 35° W 21:24:14 10° NNW visible
04 Jul 5.5 21:41:46 10° SW 21:45:21 19° W 21:48:57 10° NW visible
